,,,PA_Meas_PMT16A,,PR_Meas_QMR101_102,,RH_Meas_QMH101,,SR_Meas_QMS101,,TA_Meas_QMH101,,GenWind,,GenWind,
date,time,status,PA,status,PR,status,RH,status,SR,status,TA,status,DirAvg,status,SpdAvg,
2010-06-03, 00:00:04,VALID,1011.59,VALID,0,VALID,102.757,VALID,0,VALID,23.6161,VALID,236,VALID,0,
2010-06-03, 00:01:04,VALID,1011.58,VALID,0,VALID,102.765,VALID,0,VALID,23.6161,VALID,236,VALID,0,
2010-06-03, 00:02:04,VALID,1011.59,VALID,0,VALID,102.772,VALID,0.105969,VALID,23.5966,VALID,236,VALID,0,
2010-06-03, 00:03:04,VALID,1011.59,VALID,0,VALID,102.765,VALID,0,VALID,23.5558,VALID,236,VALID,0,
2010-06-03, 00:04:04,VALID,1011.57,VALID,0,VALID,102.795,VALID,0,VALID,23.5169,VALID,236,VALID,0,
2010-06-03, 00:05:04,VALID,1011.57,VALID,0,VALID,102.81,VALID,0,VALID,23.4584,VALID,236,VALID,0,
2010-06-03, 00:06:04,VALID,1011.53,VALID,0,VALID,102.78,VALID,0,VALID,23.4602,VALID,236,VALID,0,
2010-06-03, 00:07:04,VALID,1011.54,VALID,0,VALID,102.78,VALID,0,VALID,23.4407,VALID,236,VALID,0,
2010-06-03, 00:08:04,VALID,1011.53,VALID,0,VALID,102.757,VALID,0,VALID,23.4797,VALID,236,VALID,0,
2010-06-03, 00:09:04,VALID,1011.52,VALID,0,VALID,102.757,VALID,0.105969,VALID,23.4974,VALID,236,VALID,0,
2010-06-03, 00:10:04,VALID,1011.54,VALID,0,VALID,102.765,VALID,0.105969,VALID,23.5381,VALID,236,VALID,0,
2010-06-03, 00:11:04,VALID,1011.53,VALID,0,VALID,102.765,VALID,0.105969,VALID,23.5381,VALID,236,VALID,0,
2010-06-03, 00:12:04,VALID,1011.54,VALID,0,VALID,102.765,VALID,0.105969,VALID,23.5363,VALID,236,VALID,0,
2010-06-03, 00:13:04,VALID,1011.54,VALID,0,VALID,102.734,VALID,0.105969,VALID,23.5363,VALID,236,VALID,0,
2010-06-03, 00:14:04,VALID,1011.55,VALID,0,VALID,102.757,VALID,0,VALID,23.5576,VALID,236,VALID,0,
2010-06-03, 00:15:04,VALID,1011.57,VALID,0,VALID,102.742,VALID,0.105969,VALID,23.5966,VALID,236,VALID,0,
2010-06-03, 00:16:04,VALID,1011.59,VALID,0,VALID,102.765,VALID,0,VALID,23.5753,VALID,236,VALID,0,
2010-06-03, 00:17:04,VALID,1011.59,VALID,0,VALID,102.757,VALID,0,VALID,23.5558,VALID,236,VALID,0,
2010-06-03, 00:18:04,VALID,1011.54,VALID,0,VALID,102.788,VALID,0,VALID,23.5381,VALID,236,VALID,0,
2010-06-03, 00:19:04,VALID,1011.52,VALID,0,VALID,102.818,VALID,0,VALID,23.5186,VALID,236,VALID,0,
2010-06-03, 00:20:04,VALID,1011.49,VALID,0,VALID,102.81,VALID,0.105969,VALID,23.4992,VALID,236,VALID,0,
2010-06-03, 00:21:04,VALID,1011.47,VALID,0,VALID,102.788,VALID,0,VALID,23.4992,VALID,236,VALID,0,
2010-06-03, 00:22:04,VALID,1011.44,VALID,0,VALID,102.803,VALID,0,VALID,23.4797,VALID,236,VALID,0.456641,
2010-06-03, 00:23:04,VALID,1011.42,VALID,0,VALID,102.795,VALID,0,VALID,23.4602,VALID,236,VALID,0.206641,
2010-06-03, 00:24:04,VALID,1011.41,VALID,0,VALID,102.795,VALID,0,VALID,23.4584,VALID,236,VALID,0.0980469,
2010-06-03, 00:25:04,VALID,1011.4,VALID,0,VALID,102.803,VALID,0.105969,VALID,23.4797,VALID,236,VALID,0.0507813,
2010-06-03, 00:26:04,VALID,1011.38,VALID,0,VALID,102.803,VALID,0.105969,VALID,23.4797,VALID,187,VALID,0.482422,
2010-06-03, 00:27:04,VALID,1011.36,VALID,0,VALID,102.788,VALID,0,VALID,23.4797,VALID,187,VALID,0,
2010-06-03, 00:28:04,VALID,1011.36,VALID,0,VALID,102.788,VALID,0.105969,VALID,23.4602,VALID,187,VALID,0,
2010-06-03, 00:29:04,VALID,1011.35,VALID,0,VALID,102.818,VALID,0,VALID,23.4602,VALID,187,VALID,0,
2010-06-03, 00:30:04,VALID,1011.32,VALID,0,VALID,102.818,VALID,0,VALID,23.4602,VALID,187,VALID,0,
2010-06-03, 00:31:04,VALID,1011.32,VALID,0,VALID,102.772,VALID,0,VALID,23.4602,VALID,187,VALID,0.217578,
2010-06-03, 00:32:04,VALID,1011.31,VALID,0,VALID,102.78,VALID,0.105969,VALID,23.4584,VALID,187,VALID,0.230469,
2010-06-03, 00:33:04,VALID,1011.33,VALID,0,VALID,102.765,VALID,0.105969,VALID,23.4992,VALID,187,VALID,0.230859,
2010-06-03, 00:34:04,VALID,1011.3,VALID,0,VALID,102.78,VALID,0,VALID,23.4797,VALID,187,VALID,0.230469,
2010-06-03, 00:35:04,VALID,1011.28,VALID,0,VALID,102.757,VALID,0.105969,VALID,23.4797,VALID,187,VALID,0.230859,
2010-06-03, 00:36:04,VALID,1011.29,VALID,0,VALID,102.788,VALID,0.105969,VALID,23.4584,VALID,187,VALID,0.0605469,
2010-06-03, 00:37:04,VALID,1011.28,VALID,0,VALID,102.803,VALID,0.105969,VALID,23.4194,VALID,187,VALID,0,
2010-06-03, 00:38:04,VALID,1011.3,VALID,0,VALID,102.803,VALID,0.105969,VALID,23.4,VALID,187,VALID,0,
2010-06-03, 00:39:04,VALID,1011.28,VALID,0,VALID,102.803,VALID,0.105969,VALID,23.4212,VALID,187,VALID,0,
2010-06-03, 00:40:04,VALID,1011.28,VALID,0,VALID,102.803,VALID,0.105969,VALID,23.4,VALID,187,VALID,0,
2010-06-03, 00:41:04,VALID,1011.24,VALID,0,VALID,102.765,VALID,0.105969,VALID,23.4194,VALID,187,VALID,0,
2010-06-03, 00:42:04,VALID,1011.22,VALID,0,VALID,102.757,VALID,0.105969,VALID,23.4389,VALID,187,VALID,0,
2010-06-03, 00:43:04,VALID,1011.22,VALID,0,VALID,102.734,VALID,0.105969,VALID,23.4389,VALID,187,VALID,0,
2010-06-03, 00:44:04,VALID,1011.2,VALID,0,VALID,102.765,VALID,0.105969,VALID,23.4389,VALID,187,VALID,0,
2010-06-03, 00:45:04,VALID,1011.19,VALID,0,VALID,102.765,VALID,0.105969,VALID,23.4389,VALID,187,VALID,0,
2010-06-03, 00:46:04,VALID,1011.15,VALID,0,VALID,102.749,VALID,0,VALID,23.4389,VALID,187,VALID,0,
2010-06-03, 00:47:04,VALID,1011.15,VALID,0,VALID,102.742,VALID,0.105969,VALID,23.4584,VALID,187,VALID,0,
2010-06-03, 00:48:04,VALID,1011.1,VALID,0,VALID,102.727,VALID,0.105969,VALID,23.4584,VALID,187,VALID,0,
2010-06-03, 00:49:04,VALID,1011.07,VALID,0,VALID,102.742,VALID,0.105969,VALID,23.4584,VALID,187,VALID,0,
2010-06-03, 00:50:04,VALID,1011.06,VALID,0,VALID,102.742,VALID,0.105969,VALID,23.4584,VALID,187,VALID,0,
2010-06-03, 00:51:04,VALID,1011.01,VALID,0,VALID,102.742,VALID,0.105969,VALID,23.4584,VALID,187,VALID,0,
2010-06-03, 00:52:04,VALID,1011.02,VALID,0,VALID,102.78,VALID,0.105969,VALID,23.4584,VALID,187,VALID,0,
2010-06-03, 00:53:04,VALID,1011.02,VALID,0,VALID,102.765,VALID,0.105969,VALID,23.4584,VALID,187,VALID,0,
2010-06-03, 00:54:04,VALID,1010.97,VALID,0,VALID,102.788,VALID,0.105969,VALID,23.4194,VALID,187,VALID,0,
2010-06-03, 00:55:04,VALID,1010.96,VALID,0,VALID,102.772,VALID,0.105969,VALID,23.4194,VALID,187,VALID,0,
2010-06-03, 00:56:04,VALID,1010.97,VALID,0,VALID,102.749,VALID,0.105969,VALID,23.4407,VALID,187,VALID,0,
2010-06-03, 00:57:04,VALID,1010.94,VALID,0,VALID,102.734,VALID,0.105969,VALID,23.4194,VALID,187,VALID,0,
2010-06-03, 00:58:04,VALID,1010.93,VALID,0,VALID,102.749,VALID,0.105969,VALID,23.4194,VALID,187,VALID,0,
2010-06-03, 00:59:04,VALID,1010.88,VALID,0,VALID,102.757,VALID,0.105969,VALID,23.4194,VALID,187,VALID,0,
2010-06-03, 01:00:04,VALID,1010.88,VALID,0,VALID,102.78,VALID,0.105969,VALID,23.4407,VALID,187,VALID,0,
2010-06-03, 01:01:04,VALID,1010.87,VALID,0,VALID,102.734,VALID,0.105969,VALID,23.4194,VALID,187,VALID,0,
2010-06-03, 01:02:04,VALID,1010.84,VALID,0,VALID,102.734,VALID,0.105969,VALID,23.4389,VALID,187,VALID,0,
2010-06-03, 01:03:04,VALID,1010.83,VALID,0,VALID,102.765,VALID,0.105969,VALID,23.4407,VALID,187,VALID,0,
2010-06-03, 01:04:04,VALID,1010.82,VALID,0,VALID,102.772,VALID,0.105969,VALID,23.4212,VALID,187,VALID,0.0636719,
2010-06-03, 01:05:04,VALID,1010.82,VALID,0,VALID,102.81,VALID,0.105969,VALID,23.361,VALID,187,VALID,0.2375,
2010-06-03, 01:06:04,VALID,1010.84,VALID,0,VALID,102.795,VALID,0,VALID,23.322,VALID,187,VALID,0,
2010-06-03, 01:07:04,VALID,1010.84,VALID,0,VALID,102.818,VALID,0.105969,VALID,23.3026,VALID,187,VALID,0,
2010-06-03, 01:08:04,VALID,1010.84,VALID,0,VALID,102.788,VALID,0.105969,VALID,23.3238,VALID,187,VALID,0,
2010-06-03, 01:09:04,VALID,1010.83,VALID,0,VALID,102.795,VALID,0.105969,VALID,23.3026,VALID,187,VALID,0.442969,
2010-06-03, 01:10:04,VALID,1010.81,VALID,0,VALID,102.81,VALID,0.105969,VALID,23.2831,VALID,187,VALID,0.435547,
2010-06-03, 01:11:04,VALID,1010.8,VALID,0,VALID,102.826,VALID,0.105969,VALID,23.2441,VALID,187,VALID,0.254297,
2010-06-03, 01:12:04,VALID,1010.76,VALID,0,VALID,102.795,VALID,0.105969,VALID,23.2441,VALID,187,VALID,0,
2010-06-03, 01:13:04,VALID,1010.76,VALID,0,VALID,102.795,VALID,0.105969,VALID,23.2654,VALID,187,VALID,0,
2010-06-03, 01:14:04,VALID,1010.76,VALID,0,VALID,102.795,VALID,0.105969,VALID,23.2441,VALID,187,VALID,0,
2010-06-03, 01:15:04,VALID,1010.76,VALID,0,VALID,102.795,VALID,0,VALID,23.2848,VALID,187,VALID,0,
2010-06-03, 01:16:04,VALID,1010.78,VALID,0,VALID,102.757,VALID,0,VALID,23.3043,VALID,187,VALID,0,
2010-06-03, 01:17:05,VALID,1010.8,VALID,0,VALID,102.734,VALID,0,VALID,23.322,VALID,187,VALID,0,
2010-06-03, 01:18:05,VALID,1010.78,VALID,0,VALID,102.734,VALID,0.105969,VALID,23.3628,VALID,187,VALID,0,
2010-06-03, 01:19:05,VALID,1010.78,VALID,0,VALID,102.719,VALID,0,VALID,23.3805,VALID,187,VALID,0,
2010-06-03, 01:20:05,VALID,1010.78,VALID,0,VALID,102.734,VALID,0.105969,VALID,23.361,VALID,187,VALID,0,
2010-06-03, 01:21:05,VALID,1010.76,VALID,0,VALID,102.734,VALID,0,VALID,23.361,VALID,187,VALID,0,
2010-06-03, 01:22:05,VALID,1010.76,VALID,0,VALID,102.78,VALID,0,VALID,23.3628,VALID,187,VALID,0,
2010-06-03, 01:23:05,VALID,1010.76,VALID,0,VALID,102.78,VALID,0.105969,VALID,23.3433,VALID,187,VALID,0,
2010-06-03, 01:24:05,VALID,1010.73,VALID,0,VALID,102.803,VALID,0.105969,VALID,23.2831,VALID,187,VALID,0,
2010-06-03, 01:25:05,VALID,1010.75,VALID,0,VALID,102.826,VALID,0.105969,VALID,23.2831,VALID,187,VALID,0,
2010-06-03, 01:26:05,VALID,1010.75,VALID,0,VALID,102.81,VALID,0,VALID,23.2636,VALID,187,VALID,0,
2010-06-03, 01:27:05,VALID,1010.72,VALID,0,VALID,102.803,VALID,0.105969,VALID,23.2636,VALID,187,VALID,0,
2010-06-03, 01:28:05,VALID,1010.77,VALID,0,VALID,102.81,VALID,0.105969,VALID,23.2441,VALID,187,VALID,0,
2010-06-03, 01:29:05,VALID,1010.76,VALID,0,VALID,102.81,VALID,0.105969,VALID,23.2441,VALID,187,VALID,0,
2010-06-03, 01:30:05,VALID,1010.73,VALID,0,VALID,102.795,VALID,0.105969,VALID,23.2459,VALID,187,VALID,0,
2010-06-03, 01:31:05,VALID,1010.74,VALID,0,VALID,102.795,VALID,0.105969,VALID,23.2246,VALID,187,VALID,0,
2010-06-03, 01:32:05,VALID,1010.7,VALID,0,VALID,102.795,VALID,0,VALID,23.2264,VALID,187,VALID,0,
2010-06-03, 01:33:05,VALID,1010.72,VALID,0,VALID,102.826,VALID,0,VALID,23.2069,VALID,187,VALID,0,
2010-06-03, 01:34:05,VALID,1010.71,VALID,0,VALID,102.795,VALID,0,VALID,23.2264,VALID,187,VALID,0,
2010-06-03, 01:35:05,VALID,1010.66,VALID,0,VALID,102.818,VALID,0,VALID,23.2069,VALID,187,VALID,0,
2010-06-03, 01:36:05,VALID,1010.64,VALID,0,VALID,102.81,VALID,0,VALID,23.2069,VALID,187,VALID,0,
2010-06-03, 01:37:05,VALID,1010.64,VALID,0,VALID,102.826,VALID,0.105969,VALID,23.1679,VALID,187,VALID,0,
2010-06-03, 01:38:05,VALID,1010.62,VALID,0,VALID,102.841,VALID,0,VALID,23.1485,VALID,187,VALID,0,
2010-06-03, 01:39:05,VALID,1010.61,VALID,0,VALID,102.833,VALID,0,VALID,23.1467,VALID,187,VALID,0,
2010-06-03, 01:40:05,VALID,1010.6,VALID,0,VALID,102.81,VALID,0,VALID,23.1272,VALID,187,VALID,0,
2010-06-03, 01:41:05,VALID,1010.57,VALID,0,VALID,102.826,VALID,0,VALID,23.1272,VALID,187,VALID,0,
2010-06-03, 01:42:05,VALID,1010.56,VALID,0,VALID,102.833,VALID,0.105969,VALID,23.0883,VALID,187,VALID,0,
2010-06-03, 01:43:05,VALID,1010.54,VALID,0,VALID,102.894,VALID,0,VALID,23.0103,VALID,187,VALID,0,
2010-06-03, 01:44:05,VALID,1010.52,VALID,0,VALID,102.864,VALID,0.105969,VALID,22.9909,VALID,187,VALID,0,
2010-06-03, 01:45:05,VALID,1010.5,VALID,0,VALID,102.887,VALID,0.105969,VALID,22.9731,VALID,187,VALID,0,
2010-06-03, 01:46:05,VALID,1010.47,VALID,0,VALID,102.887,VALID,0,VALID,22.9536,VALID,187,VALID,0,
2010-06-03, 01:47:05,VALID,1010.45,VALID,0,VALID,102.894,VALID,0,VALID,22.8935,VALID,187,VALID,0,
2010-06-03, 01:48:05,VALID,1010.42,VALID,0,VALID,102.902,VALID,0.105969,VALID,22.9129,VALID,187,VALID,0,
2010-06-03, 01:49:05,VALID,1010.38,VALID,0,VALID,102.826,VALID,0.105969,VALID,22.9731,VALID,187,VALID,0,
2010-06-03, 01:50:05,VALID,1010.39,VALID,0,VALID,102.818,VALID,0,VALID,22.9714,VALID,187,VALID,0,
2010-06-03, 01:51:05,VALID,1010.38,VALID,0,VALID,102.788,VALID,0,VALID,23.0316,VALID,187,VALID,0,
2010-06-03, 01:52:05,VALID,1010.4,VALID,0,VALID,102.78,VALID,0,VALID,23.0298,VALID,187,VALID,0,
2010-06-03, 01:53:05,VALID,1010.4,VALID,0,VALID,102.757,VALID,0,VALID,23.0705,VALID,187,VALID,0,
2010-06-03, 01:54:05,VALID,1010.38,VALID,0,VALID,102.757,VALID,0,VALID,23.09,VALID,187,VALID,0,
2010-06-03, 01:55:05,VALID,1010.35,VALID,0,VALID,102.734,VALID,0,VALID,23.1095,VALID,187,VALID,0,
2010-06-03, 01:56:05,VALID,1010.36,VALID,0,VALID,102.749,VALID,0,VALID,23.1077,VALID,187,VALID,0,
2010-06-03, 01:57:05,VALID,1010.36,VALID,0,VALID,102.719,VALID,0,VALID,23.1272,VALID,187,VALID,0,
2010-06-03, 01:58:05,VALID,1010.37,VALID,0,VALID,102.696,VALID,0,VALID,23.1485,VALID,187,VALID,0,
2010-06-03, 01:59:05,VALID,1010.4,VALID,0,VALID,102.719,VALID,0,VALID,23.1485,VALID,187,VALID,0,
2010-06-03, 02:00:05,VALID,1010.38,VALID,0,VALID,102.734,VALID,0,VALID,23.129,VALID,187,VALID,0,
2010-06-03, 02:01:05,VALID,1010.39,VALID,0,VALID,102.742,VALID,0.105969,VALID,23.1485,VALID,187,VALID,0,
2010-06-03, 02:02:05,VALID,1010.38,VALID,0,VALID,102.696,VALID,0.105969,VALID,23.1272,VALID,187,VALID,0,
2010-06-03, 02:03:05,VALID,1010.37,VALID,0,VALID,102.673,VALID,0.105969,VALID,23.1662,VALID,187,VALID,0,
2010-06-03, 02:04:05,VALID,1010.34,VALID,0,VALID,102.658,VALID,0.105969,VALID,23.1662,VALID,187,VALID,0,
2010-06-03, 02:05:05,VALID,1010.34,VALID,0,VALID,102.681,VALID,0,VALID,23.1874,VALID,187,VALID,0,
2010-06-03, 02:06:05,VALID,1010.34,VALID,0,VALID,102.666,VALID,0.105969,VALID,23.2051,VALID,187,VALID,0,
2010-06-03, 02:07:05,VALID,1010.33,VALID,0,VALID,102.666,VALID,0.105969,VALID,23.2051,VALID,187,VALID,0,
2010-06-03, 02:08:05,VALID,1010.36,VALID,0,VALID,102.673,VALID,0.105969,VALID,23.1857,VALID,187,VALID,0,
2010-06-03, 02:09:05,VALID,1010.36,VALID,0,VALID,102.696,VALID,0.105969,VALID,23.2069,VALID,187,VALID,0,
2010-06-03, 02:10:05,VALID,1010.4,VALID,0,VALID,102.711,VALID,0.105969,VALID,23.1874,VALID,187,VALID,0.216016,
2010-06-03, 02:11:05,VALID,1010.41,VALID,0,VALID,102.734,VALID,0,VALID,23.1485,VALID,187,VALID,0.141016,
2010-06-03, 02:12:05,VALID,1010.42,VALID,0,VALID,102.734,VALID,0.105969,VALID,23.0883,VALID,187,VALID,0,
2010-06-03, 02:13:05,VALID,1010.39,VALID,0,VALID,102.727,VALID,0.105969,VALID,23.0688,VALID,187,VALID,0,
2010-06-03, 02:14:05,VALID,1010.41,VALID,0,VALID,102.734,VALID,0.105969,VALID,23.0688,VALID,187,VALID,0,
2010-06-03, 02:15:05,VALID,1010.35,VALID,0,VALID,102.742,VALID,0.105969,VALID,23.0493,VALID,187,VALID,0,
2010-06-03, 02:16:05,VALID,1010.37,VALID,0,VALID,102.727,VALID,0.105969,VALID,23.0493,VALID,187,VALID,0,
2010-06-03, 02:17:05,VALID,1010.35,VALID,0,VALID,102.734,VALID,0,VALID,23.0511,VALID,187,VALID,0,
2010-06-03, 02:18:05,VALID,1010.35,VALID,0,VALID,102.719,VALID,0,VALID,23.0316,VALID,187,VALID,0,
2010-06-03, 02:19:05,VALID,1010.33,VALID,0,VALID,102.727,VALID,0,VALID,23.0316,VALID,187,VALID,0,
2010-06-03, 02:20:05,VALID,1010.34,VALID,0,VALID,102.711,VALID,0,VALID,23.0316,VALID,187,VALID,0,
2010-06-03, 02:21:05,VALID,1010.36,VALID,0,VALID,102.742,VALID,0,VALID,23.0333,VALID,187,VALID,0,
2010-06-03, 02:22:05,VALID,1010.36,VALID,0,VALID,102.727,VALID,0,VALID,23.0121,VALID,187,VALID,0,
2010-06-03, 02:23:05,VALID,1010.36,VALID,0,VALID,102.719,VALID,0,VALID,23.0121,VALID,187,VALID,0,
2010-06-03, 02:24:05,VALID,1010.37,VALID,0,VALID,102.734,VALID,0,VALID,23.0138,VALID,187,VALID,0,
2010-06-03, 02:25:05,VALID,1010.36,VALID,0,VALID,102.719,VALID,0,VALID,23.0121,VALID,187,VALID,0,
2010-06-03, 02:26:05,VALID,1010.33,VALID,0,VALID,102.704,VALID,0,VALID,22.9926,VALID,187,VALID,0,
2010-06-03, 02:27:05,VALID,1010.34,VALID,0,VALID,102.719,VALID,0,VALID,23.0121,VALID,187,VALID,0,
2010-06-03, 02:28:05,VALID,1010.32,VALID,0,VALID,102.711,VALID,0,VALID,22.9926,VALID,187,VALID,0,
2010-06-03, 02:29:05,VALID,1010.31,VALID,0,VALID,102.711,VALID,0,VALID,22.9926,VALID,187,VALID,0,
2010-06-03, 02:30:05,VALID,1010.26,VALID,0,VALID,102.742,VALID,0,VALID,22.9554,VALID,187,VALID,0,
2010-06-03, 02:31:05,VALID,1010.25,VALID,0,VALID,102.765,VALID,0,VALID,22.8952,VALID,187,VALID,0,
2010-06-03, 02:32:05,VALID,1010.25,VALID,0,VALID,102.765,VALID,0,VALID,22.9164,VALID,187,VALID,0,
2010-06-03, 02:33:05,VALID,1010.21,VALID,0,VALID,102.734,VALID,0,VALID,22.8757,VALID,187,VALID,0,
2010-06-03, 02:34:05,VALID,1010.21,VALID,0,VALID,102.711,VALID,0,VALID,22.8952,VALID,187,VALID,0,
2010-06-03, 02:35:05,VALID,1010.21,VALID,0,VALID,102.65,VALID,0,VALID,22.9554,VALID,187,VALID,0,
2010-06-03, 02:36:05,VALID,1010.2,VALID,0,VALID,102.627,VALID,0,VALID,22.9943,VALID,187,VALID,0,
2010-06-03, 02:37:05,VALID,1010.17,VALID,0,VALID,102.612,VALID,0,VALID,23.0138,VALID,187,VALID,0,
2010-06-03, 02:38:05,VALID,1010.16,VALID,0,VALID,102.612,VALID,0,VALID,23.0316,VALID,187,VALID,0,
2010-06-03, 02:39:05,VALID,1010.17,VALID,0,VALID,102.627,VALID,0,VALID,23.0316,VALID,187,VALID,0,
2010-06-03, 02:40:05,VALID,1010.18,VALID,0,VALID,102.65,VALID,0,VALID,23.0316,VALID,187,VALID,0.0421875,
2010-06-03, 02:41:05,VALID,1010.18,VALID,0,VALID,102.681,VALID,0,VALID,23.0121,VALID,187,VALID,0.282813,
2010-06-03, 02:42:05,VALID,1010.18,VALID,0,VALID,102.704,VALID,0,VALID,23.0138,VALID,187,VALID,0.298828,
2010-06-03, 02:43:05,VALID,1010.21,VALID,0,VALID,102.711,VALID,0,VALID,22.9536,VALID,187,VALID,0.167578,
2010-06-03, 02:44:05,VALID,1010.21,VALID,0,VALID,102.711,VALID,0,VALID,22.9536,VALID,187,VALID,0.149219,
2010-06-03, 02:45:05,VALID,1010.23,VALID,0,VALID,102.688,VALID,0,VALID,22.9554,VALID,187,VALID,0.192188,
2010-06-03, 02:46:05,VALID,1010.19,VALID,0,VALID,102.704,VALID,0,VALID,22.9359,VALID,187,VALID,0.0808594,
2010-06-03, 02:47:05,VALID,1010.19,VALID,0,VALID,102.704,VALID,0,VALID,22.9359,VALID,187,VALID,0,
2010-06-03, 02:48:05,VALID,1010.18,VALID,0,VALID,102.727,VALID,0,VALID,22.9164,VALID,187,VALID,0,
2010-06-03, 02:49:05,VALID,1010.21,VALID,0,VALID,102.749,VALID,0,VALID,22.8562,VALID,187,VALID,0,
2010-06-03, 02:50:05,VALID,1010.18,VALID,0,VALID,102.78,VALID,0,VALID,22.819,VALID,187,VALID,0,
2010-06-03, 02:51:05,VALID,1010.21,VALID,0,VALID,102.765,VALID,0,VALID,22.7978,VALID,187,VALID,0,
2010-06-03, 02:52:05,VALID,1010.21,VALID,0,VALID,102.749,VALID,0,VALID,22.819,VALID,187,VALID,0,
2010-06-03, 02:53:05,VALID,1010.23,VALID,0,VALID,102.742,VALID,0,VALID,22.7978,VALID,187,VALID,0,
2010-06-03, 02:54:05,VALID,1010.22,VALID,0,VALID,102.765,VALID,0,VALID,22.7783,VALID,187,VALID,0,
2010-06-03, 02:55:05,VALID,1010.23,VALID,0,VALID,102.734,VALID,0,VALID,22.78,VALID,187,VALID,0,
2010-06-03, 02:56:05,VALID,1010.22,VALID,0,VALID,102.742,VALID,0,VALID,22.7588,VALID,187,VALID,0,
2010-06-03, 02:57:05,VALID,1010.21,VALID,0,VALID,102.704,VALID,0,VALID,22.7978,VALID,187,VALID,0,
2010-06-03, 02:58:05,VALID,1010.2,VALID,0,VALID,102.704,VALID,0,VALID,22.8385,VALID,187,VALID,0,
2010-06-03, 02:59:05,VALID,1010.24,VALID,0,VALID,102.688,VALID,0,VALID,22.8173,VALID,187,VALID,0,
2010-06-03, 03:00:05,VALID,1010.22,VALID,0,VALID,102.696,VALID,0,VALID,22.819,VALID,187,VALID,0,
2010-06-03, 03:01:05,VALID,1010.21,VALID,0,VALID,102.711,VALID,0,VALID,22.819,VALID,187,VALID,0,
2010-06-03, 03:02:05,VALID,1010.22,VALID,0,VALID,102.711,VALID,0,VALID,22.8173,VALID,187,VALID,0,
2010-06-03, 03:03:05,VALID,1010.24,VALID,0,VALID,102.727,VALID,0.105969,VALID,22.8173,VALID,187,VALID,0,
2010-06-03, 03:04:05,VALID,1010.21,VALID,0,VALID,102.742,VALID,0.105969,VALID,22.7978,VALID,187,VALID,0,
2010-06-03, 03:05:05,VALID,1010.24,VALID,0,VALID,102.742,VALID,0,VALID,22.7571,VALID,187,VALID,0,
2010-06-03, 03:06:05,VALID,1010.24,VALID,0,VALID,102.734,VALID,0.105969,VALID,22.7766,VALID,187,VALID,0,
2010-06-03, 03:07:05,VALID,1010.22,VALID,0,VALID,102.727,VALID,0,VALID,22.7571,VALID,187,VALID,0,
2010-06-03, 03:08:05,VALID,1010.24,VALID,0,VALID,102.711,VALID,0.105969,VALID,22.7783,VALID,187,VALID,0,
2010-06-03, 03:09:05,VALID,1010.24,VALID,0,VALID,102.711,VALID,0,VALID,22.7571,VALID,187,VALID,0,
2010-06-03, 03:10:05,VALID,1010.19,VALID,0,VALID,102.711,VALID,0.105969,VALID,22.7783,VALID,187,VALID,0,
2010-06-03, 03:11:05,VALID,1010.19,VALID,0,VALID,102.719,VALID,0.105969,VALID,22.7571,VALID,187,VALID,0,
2010-06-03, 03:12:05,VALID,1010.19,VALID,0,VALID,102.719,VALID,0,VALID,22.7766,VALID,187,VALID,0,
2010-06-03, 03:13:05,VALID,1010.21,VALID,0,VALID,102.727,VALID,0.105969,VALID,22.7588,VALID,187,VALID,0,
2010-06-03, 03:14:05,VALID,1010.21,VALID,0,VALID,102.742,VALID,0.105969,VALID,22.7182,VALID,187,VALID,0,
2010-06-03, 03:15:05,VALID,1010.24,VALID,0,VALID,102.749,VALID,0.105969,VALID,22.7394,VALID,187,VALID,0,
2010-06-03, 03:16:05,VALID,1010.22,VALID,0,VALID,102.742,VALID,0.105969,VALID,22.7199,VALID,187,VALID,0,
2010-06-03, 03:17:05,VALID,1010.25,VALID,0,VALID,102.734,VALID,0,VALID,22.7199,VALID,187,VALID,0,
2010-06-03, 03:18:05,VALID,1010.26,VALID,0,VALID,102.757,VALID,0,VALID,22.6809,VALID,187,VALID,0,
2010-06-03, 03:19:05,VALID,1010.29,VALID,0,VALID,102.749,VALID,0,VALID,22.6809,VALID,187,VALID,0,
2010-06-03, 03:20:05,VALID,1010.27,VALID,0,VALID,102.711,VALID,0,VALID,22.6792,VALID,187,VALID,0,
2010-06-03, 03:21:05,VALID,1010.27,VALID,0,VALID,102.719,VALID,0,VALID,22.7004,VALID,187,VALID,0,
2010-06-03, 03:22:05,VALID,1010.3,VALID,0,VALID,102.742,VALID,0,VALID,22.7004,VALID,187,VALID,0,
2010-06-03, 03:23:05,VALID,1010.28,VALID,0,VALID,102.711,VALID,0,VALID,22.7004,VALID,187,VALID,0,
2010-06-03, 03:24:05,VALID,1010.26,VALID,0,VALID,102.727,VALID,0,VALID,22.6792,VALID,187,VALID,0,
2010-06-03, 03:25:05,VALID,1010.26,VALID,0,VALID,102.711,VALID,0,VALID,22.7199,VALID,187,VALID,0,
2010-06-03, 03:26:05,VALID,1010.23,VALID,0,VALID,102.742,VALID,0,VALID,22.7199,VALID,187,VALID,0,
2010-06-03, 03:27:05,VALID,1010.25,VALID,0,VALID,102.704,VALID,0,VALID,22.7199,VALID,187,VALID,0,
2010-06-03, 03:28:05,VALID,1010.24,VALID,0,VALID,102.704,VALID,0,VALID,22.7199,VALID,187,VALID,0,
2010-06-03, 03:29:05,VALID,1010.23,VALID,0,VALID,102.711,VALID,0,VALID,22.6987,VALID,187,VALID,0,
2010-06-03, 03:30:05,VALID,1010.2,VALID,0,VALID,102.696,VALID,0,VALID,22.7199,VALID,187,VALID,0,
2010-06-03, 03:31:05,VALID,1010.17,VALID,0,VALID,102.727,VALID,0,VALID,22.7199,VALID,187,VALID,0,
2010-06-03, 03:32:05,VALID,1010.17,VALID,0,VALID,102.719,VALID,0,VALID,22.7199,VALID,187,VALID,0,
2010-06-03, 03:33:05,VALID,1010.15,VALID,0,VALID,102.734,VALID,0,VALID,22.6792,VALID,187,VALID,0,
2010-06-03, 03:34:05,VALID,1010.15,VALID,0,VALID,102.734,VALID,0,VALID,22.6809,VALID,187,VALID,0,
2010-06-03, 03:35:05,VALID,1010.13,VALID,0,VALID,102.757,VALID,0,VALID,22.6614,VALID,187,VALID,0,
2010-06-03, 03:36:05,VALID,1010.14,VALID,0,VALID,102.719,VALID,0,VALID,22.6208,VALID,187,VALID,0,
2010-06-03, 03:37:05,VALID,1010.14,VALID,0,VALID,102.734,VALID,0,VALID,22.6013,VALID,187,VALID,0,
2010-06-03, 03:38:05,VALID,1010.16,VALID,0,VALID,102.742,VALID,0,VALID,22.6208,VALID,187,VALID,0,
2010-06-03, 03:39:05,VALID,1010.17,VALID,0,VALID,102.749,VALID,0,VALID,22.6225,VALID,187,VALID,0,
2010-06-03, 03:40:05,VALID,1010.19,VALID,0,VALID,102.772,VALID,0,VALID,22.603,VALID,187,VALID,0,
2010-06-03, 03:41:05,VALID,1010.18,VALID,0,VALID,102.749,VALID,0,VALID,22.6225,VALID,186,VALID,0,
2010-06-03, 03:42:05,VALID,1010.18,VALID,0,VALID,102.696,VALID,0,VALID,22.6208,VALID,155,VALID,0,
2010-06-03, 03:43:05,VALID,1010.16,VALID,0,VALID,102.704,VALID,0.105969,VALID,22.642,VALID,155,VALID,0,
2010-06-03, 03:44:05,VALID,1010.11,VALID,0,VALID,102.711,VALID,0,VALID,22.642,VALID,150,VALID,0,
2010-06-03, 03:45:05,VALID,1010.13,VALID,0,VALID,102.673,VALID,0,VALID,22.6809,VALID,84,VALID,0.803906,
2010-06-03, 03:46:05,VALID,1010.14,VALID,0,VALID,102.62,VALID,0,VALID,22.7199,VALID,84,VALID,0.600781,
2010-06-03, 03:47:05,VALID,1010.16,VALID,0,VALID,102.62,VALID,0,VALID,22.7394,VALID,81,VALID,0.691797,
2010-06-03, 03:48:05,VALID,1010.16,VALID,0,VALID,102.62,VALID,0,VALID,22.7394,VALID,85,VALID,0.760938,
2010-06-03, 03:49:05,VALID,1010.15,VALID,0,VALID,102.62,VALID,0,VALID,22.7394,VALID,80,VALID,0.307813,
2010-06-03, 03:50:05,VALID,1010.16,VALID,0,VALID,102.65,VALID,0,VALID,22.7199,VALID,80,VALID,0.507031,
2010-06-03, 03:51:05,VALID,1010.16,VALID,0,VALID,102.658,VALID,0,VALID,22.7199,VALID,85,VALID,0.504297,